Location: Kampong Paya Jaras Dalam
(3.1833°N, 101.5500°E)
Time: 05:18:21
(UTC+00:00)

ARIANE 5 R/B - Pass Details

Date: 15 May 2026
Orbit: 270 x 29885 km, 1.4° (Epoch: 7 June)

Event Time Altitude Azimuth Distance (km) Brightness Sun altitude
Rises 15:28:37 0° 268° (W) 16,475 9.6 -56.6°
Reaches altitude 10° 15:45:44 10° 268° (W) 18,943 9.7 -59.6°
Drops below altitude 10° 20:36:07 10° 270° (W) 30,678 10.1 -34.7°
Maximum altitude 23:04:35 77° 186° (S) 1,733 4.3 -0.3°
Sets 23:10:57 0° 98° (E) 2,910 6.8 1.2°
